This is the latest recevied weather packets stored in our database for station/object WX6HNX-5. If no packets are shown the sender has not sent any weather packets the latest 1 day(s).
| Time | Temp. | Humidity | Pressure | Rain* | Wind** | Luminosity | Snow |
|---|---|---|---|---|---|---|---|
| 1778025602 | 18.89° C | 56% | 1013.8 hPa | 0 mm | 0 m/s | - | - |
| 1778025302 | 18.89° C | 56% | 1013.8 hPa | 0 mm | 0 m/s | - | - |
| 1778025001 | 18.89° C | 56% | 1013.8 hPa | 0 mm | 0.89 m/s, 333° | - | - |
| 1778024702 | 18.89° C | 56% | 1013.9 hPa | 0 mm | 0.89 m/s, 347° | - | - |
| 1778024402 | 18.89° C | 56% | 1014 hPa | 0 mm | 0.89 m/s, 357° | - | - |
| 1778024104 | 18.89° C | 56% | 1014 hPa | 0 mm | 1.34 m/s, 2° | - | - |
| 1778023804 | 18.89° C | 56% | 1014 hPa | 0 mm | 0 m/s | - | - |
| 1778023502 | 18.89° C | 56% | 1014 hPa | 0 mm | 0.89 m/s, 318° | - | - |
| 1778023202 | 18.89° C | 57% | 1014 hPa | 0 mm | 0.89 m/s, 328° | - | - |
| 1778022902 | 18.33° C | 56% | 1013.9 hPa | 0 mm | 0.89 m/s, 312° | - | - |
| 1778022602 | 18.33° C | 57% | 1014 hPa | 0 mm | 0.45 m/s, 302° | - | - |
| 1778022002 | 18.33° C | 59% | 1014 hPa | 0 mm | 0.45 m/s, 340° | - | - |
| 1778021702 | 18.33° C | 60% | 1014.1 hPa | 0 mm | 0.89 m/s, 360° | - | - |
| 1778021401 | 18.33° C | 61% | 1014.2 hPa | 0 mm | 1.79 m/s, 307° | - | - |
| 1778021102 | 18.33° C | 60% | 1014.2 hPa | 0 mm | 0 m/s | - | - |
| 1778020802 | 18.33° C | 61% | 1014.3 hPa | 0 mm | 0.89 m/s, 52° | - | - |
| 1778020502 | 18.33° C | 61% | 1014.3 hPa | 0 mm | 0.45 m/s, 326° | - | - |
| 1778020202 | 18.33° C | 62% | 1014.4 hPa | 0 mm | 0 m/s | - | - |
| 1778019901 | 17.78° C | 63% | 1014.3 hPa | 0 mm | 0 m/s | - | - |
| 1778019603 | 17.78° C | 67% | 1014.3 hPa | 0 mm | 0 m/s | - | - |
| 1778019302 | 17.22° C | 69% | 1014.4 hPa | 0 mm | 0.89 m/s, 93° | - | - |
| 1778019002 | 17.22° C | 71% | 1014.4 hPa | 0 mm | 1.34 m/s, 79° | - | - |
| 1778018702 | 17.22° C | 69% | 1014.5 hPa | 0 mm | 2.68 m/s, 77° | - | - |
| 1778018401 | 17.22° C | 67% | 1014.5 hPa | 0 mm | 2.68 m/s, 78° | - | - |
| 1778018102 | 17.22° C | 66% | 1014.6 hPa | 0 mm | 2.68 m/s, 77° | - | - |
* Rain latest hour (hover to see other rain measurements)
** Current wind speed in m/s (hover to see current wind gust speed)